Dinard-Pleurtuit-Saint-Malo Airport

Jump to: basic info | weather | frequencies | runways | comments

Related pages: nearby airports | nearby navaids | notams | map

Basic information (top)

Codes: DNR LFRD
Location: lon 48.587700, lat -2.079960, elev 219 ft / 67 m msl
Status: medium_airport
Scheduled airline service: yes
Links: Wikipedia Mobile

Weather (top)

Current conditions (rec'd 2014/08/29 09:30Z):

LFRD 290930Z AUTO 23010KT 9999 NSC 18/13 Q1018

Airport forecast (rec'd 2014/08/29 06:15Z):

TAF LFRD 290500Z 2906/3006 23010KT 9999 SCT030 
      TEMPO 2906/2907 2000 BR BKN003 
      TEMPO 2913/2915 5000 SHRA 
      BECMG 2913/2915 30010KT 
      BECMG 2919/2921 24006KT 
      TEMPO 3003/3006 BKN014

Frequencies (top)

Verify before use: may be inaccurate or out of date.

ATIS: 124.575 MHz (DINARD ATIS)
TWR: 120.15 MHz (DINARD TWR)

Runways (top)

12/30: 4,708 x 148 ft (1,435 x 45 m) — paved — not lighted — threshold 30 displaced 476 ft (145 m)

17/35: 7,218 x 148 ft (2,200 x 45 m) — paved — lighted

Latest comments (top)

No comments yet for Dinard-Pleurtuit-Saint-Malo Airport

More... (top)

See also NOTAMs and nearby airports and navaids, or visit the Dinard-Pleurtuit-Saint-Malo Airport page at the main OurAirports website..